Greenville, ME

5:42 PM EDT on June 22, 2017 (GMT -0400)
Greenville

Weather History for KGNR - March, 2012

Change the Weather History Date:

Saturday, March 24, 2012

  Actual Average (KMLT) Record (KMLT)
Temperature  
Mean Temperature 36 °F -  
Max Temperature 45 °F 41 °F 67 °F (1979)
Min Temperature 26 °F 19 °F -10 °F (1932)
Degree Days  
Heating Degree Days 30    
Moisture  
Dew Point 9 °F    
Average Humidity 37    
Maximum Humidity 58    
Minimum Humidity 17    
Precipitation  
Precipitation 0.00 in - - ()
Sea Level Pressure  
Sea Level Pressure 30.09 in    
Wind  
Wind Speed 9 mph (NNW)    
Max Wind Speed 12 mph    
Max Gust Speed 20 mph    
Averages and records for this station are not official NWS values.
T = Trace of Precipitation, MM = Missing Value Source: NWS Daily Summary

Daily Weather History Graph

Daily Weather History Graph

Search for Another Location

Airport or City:

Trip Planner

Search our weather history database for the weather conditions in past years. The results will help you decide how hot, cold, wet, or windy it might be!

Date:

Astronomy

Mar. 24, 2012 Rise Set
Actual Time 6:32 AM EDT 6:56 PM EDT
Civil Twilight 6:03 AM EDT 7:26 PM EDT
Nautical Twilight 5:28 AM EDT 8:01 PM EDT
Astronomical Twilight 4:52 AM EDT 8:37 PM EDT
Moon 7:02 AM EDT (3/24) 9:22 PM EDT (3/24)
Length of Visible Light 13h 23m
Length of Day
12h 23m
Waxing Crescent, 4% of the Moon is Illuminated
Mar 24
Waxing Crescent
Mar 30
First Quarter
Apr 6
Full
Apr 13
Last Quarter
Apr 21
New

Hourly Weather History & Observations

Time (EDT) Temp. Windchill Dew Point Humidity Pressure Visibility Wind Dir Wind Speed Gust Speed Precip Events Conditions
12:56 AM 30.9 °F 21.7 °F 9.0 °F 40% 30.09 in - NNW 11.5 mph - N/A   Unknown
1:56 AM 28.9 °F 21.9 °F 10.0 °F 45% 30.10 in - NNW 6.9 mph - N/A   Unknown
2:56 AM 28.0 °F 19.3 °F 10.9 °F 49% 30.10 in - NNW 9.2 mph 16.1 mph N/A   Unknown
3:56 AM 28.0 °F 18.6 °F 12.0 °F 51% 30.09 in - NNW 10.4 mph 19.6 mph N/A   Unknown
4:56 AM 27.0 °F 17.3 °F 10.9 °F 51% 30.10 in - NNW 10.4 mph 18.4 mph N/A   Unknown
5:56 AM 26.1 °F 17.6 °F 12.0 °F 55% 30.12 in - NW 8.1 mph - N/A   Unknown
6:56 AM 26.1 °F 18.4 °F 12.9 °F 58% 30.14 in - NNW 6.9 mph - N/A   Unknown
7:56 AM 27.0 °F 18.7 °F 12.0 °F 53% 30.17 in - NNW 8.1 mph - N/A   Unknown
8:56 AM 28.9 °F 19.8 °F 10.9 °F 47% 30.16 in - NNW 10.4 mph - N/A   Unknown
9:56 AM 30.0 °F 21.1 °F 8.1 °F 40% 30.17 in - North 10.4 mph 18.4 mph N/A   Unknown
10:56 AM 30.9 °F 22.2 °F 7.0 °F 37% 30.16 in - NNW 10.4 mph 17.3 mph N/A   Unknown
11:56 AM 35.1 °F 26.9 °F 7.0 °F 31% 30.14 in - NNW 11.5 mph - N/A   Unknown
12:56 PM 39.0 °F 35.7 °F 8.1 °F 28% 30.12 in - Variable 4.6 mph - N/A   Unknown
1:56 PM 41.0 °F 35.2 °F 6.1 °F 24% 30.09 in - NNW 9.2 mph - N/A   Unknown
2:56 PM 43.0 °F 36.8 °F 3.0 °F 19% 30.06 in - NW 11.5 mph 16.1 mph N/A   Unknown
3:56 PM 45.0 °F 40.1 °F 3.0 °F 18% 30.04 in - NNW 9.2 mph - N/A   Unknown
4:56 PM 44.1 °F 40.8 °F 1.9 °F 17% 30.04 in - NNW 5.8 mph - N/A   Unknown
5:56 PM 43.0 °F 38.2 °F 5.0 °F 21% 30.04 in - NNW 8.1 mph - N/A   Unknown
6:56 PM 39.9 °F 34.5 °F 7.0 °F 26% 30.06 in - NW 8.1 mph 16.1 mph N/A   Unknown
7:56 PM 36.0 °F 33.3 °F 15.1 °F 43% 30.06 in - Variable 3.5 mph - N/A   Unknown
8:56 PM 36.0 °F - 10.9 °F 36% 30.06 in - Calm Calm - N/A   Unknown
9:56 PM 35.1 °F 32.2 °F 10.0 °F 35% 30.06 in - North 3.5 mph - N/A   Unknown
10:56 PM 34.0 °F - 10.9 °F 38% 30.05 in - Calm Calm - N/A   Unknown
11:56 PM 36.0 °F 32.1 °F 10.9 °F 36% 30.04 in - NNW 4.6 mph - N/A   Unknown